EZY223 EHAM-EGKK

Flight info

Callsign EZY223
Flight time N/A
Altitude 24000
Route IDRID L980 ABNED Z344 AMRIV Q63 ARREK Y4 TEBRA
Aircraft A320/M-SDE3FGHIRWY/LB1

Departure

Time 2026-05-05 21:01
Airport Amsterdam Airport Schiphol (EHAM)

Arrival

Time N/A
Airport London Gatwick Airport (EGKK)
Time Latitude Longitude Altitude Speed Heading
2026-05-05 20:57 52.32050 4.73715 1 ft 27 kts 273°
2026-05-05 20:57 52.32071 4.73409 2 ft 27 kts 295°
2026-05-05 20:57 52.32210 4.73185 -1 ft 29 kts 319°
2026-05-05 20:58 52.32372 4.72956 -3 ft 31 kts 319°
2026-05-05 20:58 52.32543 4.72719 -3 ft 33 kts 320°
2026-05-05 20:58 52.32709 4.72463 0 ft 33 kts 311°
2026-05-05 20:58 52.32861 4.72182 -2 ft 34 kts 311°
2026-05-05 20:59 52.33018 4.71890 -2 ft 34 kts 311°
2026-05-05 20:59 52.33136 4.71665 -1 ft 21 kts 302°
2026-05-05 20:59 52.33101 4.71451 0 ft 22 kts 221°
2026-05-05 20:59 52.32980 4.71271 -3 ft 26 kts 221°
2026-05-05 21:00 52.32871 4.71086 -4 ft 18 kts 247°
2026-05-05 21:00 52.32879 4.70900 -3 ft 14 kts 313°
2026-05-05 21:00 52.32925 4.70886 -4 ft 0 kts
2026-05-05 21:00 52.33057 4.70902 -7 ft 59 kts
2026-05-05 21:01 52.33717 4.70962 2 ft 128 kts
2026-05-05 21:01 52.34788 4.71054 88 ft 171 kts
2026-05-05 21:01 52.35972 4.71142 790 ft 169 kts
2026-05-05 21:01 52.37143 4.71199 1487 ft 167 kts
2026-05-05 21:02 52.38304 4.71221 2063 ft 171 kts 359°
2026-05-05 21:02 52.39555 4.71190 2422 ft 188 kts 358°
2026-05-05 21:02 52.40901 4.71137 2884 ft 198 kts 358°
2026-05-05 21:02 52.42306 4.71081 3433 ft 203 kts 352°
2026-05-05 21:03 52.43607 4.70352 4140 ft 199 kts 330°
2026-05-05 21:03 52.44762 4.68947 4437 ft 218 kts 317°
2026-05-05 21:03 52.45786 4.66949 4655 ft 241 kts 301°
2026-05-05 21:03 52.46475 4.64327 4877 ft 260 kts 283°
2026-05-05 21:04 52.46682 4.61343 5354 ft 267 kts 270°
2026-05-05 21:04 52.46671 4.58277 5922 ft 270 kts 265°
2026-05-05 21:04 52.46252 4.55274 6472 ft 272 kts 248°
2026-05-05 21:04 52.45294 4.52597 7027 ft 275 kts 230°
2026-05-05 21:05 52.43869 4.50492 7561 ft 278 kts 213°
2026-05-05 21:05 52.42279 4.48688 8077 ft 280 kts 223°
2026-05-05 21:05 52.41047 4.46218 8586 ft 281 kts 237°
2026-05-05 21:05 52.40083 4.43416 9089 ft 283 kts 243°
2026-05-05 21:06 52.39227 4.40498 9577 ft 285 kts 245°
2026-05-05 21:06 52.38387 4.37541 10047 ft 288 kts 245°